Weather History for KFLG - October, 2012

Change the Weather History Date:

Thursday, October 4, 2012

  Actual Average Record
Temperature  
Mean Temperature 58 °F 51 °F  
Max Temperature 72 °F 66 °F 83 °F (1947)
Min Temperature 43 °F 35 °F 15 °F (1908)
Degree Days  
Heating Degree Days 7 14  
Month to date heating degree days 27 54  
Since 1 July heating degree days 237 371  
Cooling Degree Days 0 0  
Month to date cooling degree days 0 0  
Year to date cooling degree days 164 117  
Growing Degree Days 8 (Base 50)    
Moisture  
Dew Point 29 °F    
Average Humidity 37    
Maximum Humidity 53    
Minimum Humidity 20    
Precipitation  
Precipitation 0.00 in 0.06 in 1.60 in (1972)
Month to date precipitation 0.00 0.24  
Year to date precipitation 10.76 16.81  
Snow  
Snow 0.00 in 0.10 in T in (1946)
Month to date snowfall 0.0 0.1  
Since 1 July snowfall 0.0 0.1  
Snow Depth 0.00 in    
Sea Level Pressure  
Sea Level Pressure 30.04 in    
Wind  
Wind Speed 11 mph (WSW)    
Max Wind Speed 30 mph    
Max Gust Speed 38 mph    
Visibility 10 miles    
Events      
T = Trace of Precipitation, MM = Missing Value Source: NWS Daily Summary

Daily Weather History Graph

Daily Weather History Graph

Search for Another Location

Airport or City:

Trip Planner

Search our weather history database for the weather conditions in past years. The results will help you decide how hot, cold, wet, or windy it might be!

Date:

Astronomy

Oct. 04, 2012 Rise Set
Actual Time 6:24 AM MST 6:05 PM MST
Civil Twilight 5:58 AM MST 6:30 PM MST
Nautical Twilight 5:29 AM MST 7:00 PM MST
Astronomical Twilight 5:00 AM MST 7:29 PM MST
Moon 8:54 PM MST (10/4) 10:34 AM MST (10/4)
Length of Visible Light 12h 31m
Length of Day
11h 41m
Waning Gibbous, 81% of the Moon is Illuminated
Oct 4
Waning Gibbous
Oct 8
Last Quarter
Oct 15
New
Oct 21
First Quarter
Oct 29
Full

Hourly Weather History & Observations

Time (MST) Temp. Dew Point Humidity Pressure Visibility Wind Dir Wind Speed Gust Speed Precip Events Conditions
12:57 AM 53.1 °F 27.0 °F 37% 30.02 in 10.0 mi WNW 5.8 mph - N/A   Clear
1:57 AM 51.1 °F 27.0 °F 39% 30.02 in 10.0 mi WNW 5.8 mph - N/A   Clear
2:57 AM 48.9 °F 28.0 °F 44% 30.02 in 10.0 mi West 4.6 mph - N/A   Clear
3:57 AM 50.0 °F 28.0 °F 43% 30.03 in 10.0 mi WSW 4.6 mph - N/A   Clear
4:57 AM 48.0 °F 28.0 °F 46% 30.04 in 10.0 mi SW 3.5 mph - N/A   Clear
5:57 AM 44.1 °F 28.0 °F 53% 30.07 in 10.0 mi Calm Calm - N/A   Clear
6:57 AM 45.0 °F 28.0 °F 52% 30.10 in 10.0 mi Calm Calm - N/A   Clear
7:57 AM 57.9 °F 30.0 °F 35% 30.06 in 10.0 mi Variable 3.5 mph - N/A   Clear
8:57 AM 64.0 °F 30.0 °F 28% 30.06 in 10.0 mi SW 11.5 mph - N/A   Clear
9:57 AM 66.9 °F 32.0 °F 27% 30.06 in 10.0 mi SW 17.3 mph 25.3 mph N/A   Clear
10:57 AM 69.1 °F 28.9 °F 22% 30.06 in 10.0 mi WSW 16.1 mph 24.2 mph N/A   Clear
11:57 AM 70.0 °F 30.9 °F 24% 30.06 in 10.0 mi SSW 17.3 mph 28.8 mph N/A   Clear
12:57 PM 71.1 °F 28.9 °F 21% 30.04 in 10.0 mi SW 19.6 mph 35.7 mph N/A   Clear
1:57 PM 72.0 °F 30.0 °F 21% 30.01 in 10.0 mi SW 23.0 mph 34.5 mph N/A   Clear
2:57 PM 71.1 °F 30.0 °F 22% 30.02 in 10.0 mi SSW 24.2 mph 29.9 mph N/A   Clear
3:57 PM 70.0 °F 28.9 °F 22% 30.01 in 10.0 mi SW 23.0 mph 33.4 mph N/A   Clear
4:57 PM 69.1 °F 27.0 °F 21% 30.01 in 10.0 mi SW 16.1 mph 31.1 mph N/A   Clear
5:57 PM 64.0 °F 27.0 °F 25% 30.05 in 10.0 mi SW 18.4 mph 26.5 mph N/A   Clear
6:57 PM 62.1 °F 28.9 °F 29% 30.05 in 10.0 mi SW 15.0 mph - N/A   Clear
7:57 PM 60.1 °F 30.0 °F 32% 30.03 in 10.0 mi SW 10.4 mph - N/A   Clear
8:57 PM 57.9 °F 30.0 °F 35% 30.02 in 10.0 mi WSW 9.2 mph - N/A   Clear
9:57 PM 57.0 °F 30.0 °F 36% 30.02 in 10.0 mi WSW 6.9 mph - N/A   Clear
10:57 PM 48.0 °F 30.0 °F 50% 30.05 in 10.0 mi Calm Calm - N/A   Clear
11:57 PM 44.1 °F 28.9 °F 55% 30.06 in 10.0 mi Calm Calm - N/A   Clear